Вернуться в каталог

STARLINK-31670

АктивенСвязьVLEO
NORAD 59490·PAYLOAD·🇺🇸 United States

Запущен Apr 13, 2024 с Cape Canaveral Space Force Station

Loading…

Ближайшие Пролёты (ближайшие 24 часа)

TLE

СвежийSource: CelesTrak SupGP

Эпоха: Sep 15, 2026, 02:15 UTC

1 59490C 24071G   26258.09423611  .00016519  00000+0  59834-3 0  2581
2 59490  43.0019   1.5006 0001525 264.5651 356.2481 15.27569230    10

Отслеживайте STARLINK-31670 в реальном времени с AllMySat

Download on the App Store